This is the latest recevied weather packets stored in our database for station/object XE2OR-10. If no packets are shown the sender has not sent any weather packets the latest 10 day(s).
| Time | Temp. | Humidity | Pressure | Rain* | Wind** | Luminosity | Snow |
|---|---|---|---|---|---|---|---|
| 1778028529 | 33.33° C | 60% | 1009 hPa | 0 mm | - | 43 W/m² | - |
| 1778028233 | 33.33° C | 59% | 1009 hPa | 0 mm | - | 45 W/m² | - |
| 1778027929 | 33.33° C | 59% | 1008.9 hPa | 0 mm | - | 55 W/m² | - |
| 1778027629 | 33.33° C | 60% | 1008.7 hPa | 0 mm | - | 54 W/m² | - |
| 1778027328 | 33.33° C | 59% | 1009.1 hPa | 0 mm | - | 50 W/m² | - |
| 1778027032 | 33.33° C | 59% | 1008.9 hPa | 0 mm | - | 49 W/m² | - |
| 1778026729 | 33.33° C | 59% | 1008.9 hPa | 0 mm | - | 46 W/m² | - |
| 1778026432 | 33.33° C | 58% | 1008.8 hPa | 0 mm | - | 54 W/m² | - |
| 1778026129 | 33.89° C | 58% | 1008.9 hPa | 0 mm | - | 55 W/m² | - |
| 1778025829 | 33.89° C | 58% | 1009 hPa | 0 mm | - | 92 W/m² | - |
| 1778025529 | 33.89° C | 58% | 1008.8 hPa | 0 mm | - | 73 W/m² | - |
| 1778025232 | 33.89° C | 57% | 1008.7 hPa | 0 mm | - | 108 W/m² | - |
| 1778024929 | 33.89° C | 58% | 1008.6 hPa | 0 mm | - | 94 W/m² | - |
| 1778024633 | 33.89° C | 58% | 1008.6 hPa | 0 mm | - | 111 W/m² | - |
| 1778024329 | 34.44° C | 58% | 1008.6 hPa | 0 mm | - | 126 W/m² | - |
| 1778024029 | 33.89° C | 58% | 1008.5 hPa | 0 mm | - | 212 W/m² | - |
| 1778023729 | 34.44° C | 58% | 1008.6 hPa | 0 mm | - | 232 W/m² | - |
| 1778023432 | 34.44° C | 58% | 1008.5 hPa | 0 mm | - | 318 W/m² | - |
| 1778023129 | 34.44° C | 58% | 1008.5 hPa | 0 mm | - | 359 W/m² | - |
| 1778022832 | 34.44° C | 59% | 1008.7 hPa | 0 mm | - | 236 W/m² | - |
| 1778022529 | 34.44° C | 58% | 1008.6 hPa | 0 mm | - | 341 W/m² | - |
| 1778022229 | 34.44° C | 58% | 1008.8 hPa | 0 mm | - | 414 W/m² | - |
| 1778021929 | 34.44° C | 59% | 1008.8 hPa | 0 mm | - | 340 W/m² | - |
| 1778021633 | 34.44° C | 59% | 1008.7 hPa | 0 mm | - | 288 W/m² | - |
| 1778021329 | 34.44° C | 58% | 1008.7 hPa | 0 mm | - | 258 W/m² | - |
* Rain latest hour (hover to see other rain measurements)
** Current wind speed in m/s (hover to see current wind gust speed)